Home > Weather > Recklinghausen > Past weeks

Flag for Germany Weather for the Past 2 Weeks in Recklinghausen, North Rhine-Westphalia, Germany

Now
61 °F

Sunny.


Feels Like: 61 °F
Forecast: 44 / 56 °F
Wind: 3 mph from North

Location: Dortmund / Wickede

Current Time: May 2, 2016 at 12:58:26 PM

Latest Report: May 2, 2016 at 12:20 PM


Visibility: 10 mi

Pressure: 30.24 "Hg

Humidity: 42%

Dew Point: 37 °F

Location of RecklinghausenLocation

Historic Weather in Recklinghausen — Graph

°F

Recklinghausen Temperature Yesterday

Maximum temperature yesterday: 57 °F (at 4:20 PM)
Minimum temperature yesterday: 41 °F (at 5:20 AM)
Average temperature yesterday: 50 °F

High & Low Weather Summary for the Past Weeks

 TemperatureHumidityPressure
High63 °F (Apr 21, 4:50 PM)93% (Apr 20, 7:20 AM)30.48 "Hg (Apr 20, 7:20 AM)
Low32 °F (Apr 20, 5:50 AM)33% (Apr 20, 6:50 PM)29.45 "Hg (Apr 26, 1:50 PM)
Average45 °F65%30.01 "Hg
* Reported Apr 17 11:20 AM — May 2 11:20 AM, Recklinghausen, Weather by CustomWeather, © 2016

Note: Actual official high and low records may vary slightly from our data, if they occured in-between our weather recording intervals... More about our weather records

Advertising

Recklinghausen Weather History for the Previous 24 Hours

Scroll right to see more
 ConditionsComfort  
Time TempWeatherWind HumidityBarometerVisibility
11:20 AM
Mon, May 2
59 °FSunny.2 mph55%30.24 "Hg10 mi
10:50 AM55 °FSunny.2 mph63%30.27 "Hg10 mi
10:20 AM55 °FSunny.1 mph59%30.27 "Hg10 mi
9:50 AM54 °FSunny.1 mph67%30.27 "Hg10 mi
9:20 AM50 °FSunny.2 mph71%30.27 "Hg10 mi
8:50 AM46 °FSunny.3 mph76%30.27 "Hg10 mi
8:20 AM45 °FSunny.5 mph81%30.27 "Hg10 mi
6:50 AM39 °FClear.3 mph87%30.27 "Hg10 mi
6:20 AM37 °FClear.2 mph93%30.27 "Hg10 mi
5:50 AM41 °FClear.6 mph87%30.27 "Hg10 mi
5:20 AM39 °FClear.5 mph87%30.30 "Hg10 mi
9:50 PM
Sun, May 1
48 °FSunny.2 mph71%30.33 "Hg10 mi
9:20 PM48 °FSunny.3 mph71%30.33 "Hg10 mi
8:50 PM50 °FPassing clouds.6 mph67%30.30 "HgN/A
8:20 PM52 °FPassing clouds.6 mph62%30.30 "HgN/A
7:50 PM54 °FPassing clouds.6 mph63%30.30 "HgN/A
7:20 PM55 °FPassing clouds.7 mph55%30.30 "HgN/A
6:50 PM57 °FPassing clouds.8 mph48%30.27 "HgN/A
6:20 PM57 °FPassing clouds.8 mph51%30.27 "HgN/A
5:50 PM57 °FPassing clouds.8 mph51%30.27 "HgN/A
5:20 PM55 °FPassing clouds.7 mph51%30.27 "HgN/A
4:50 PM57 °FPassing clouds.7 mph51%30.27 "HgN/A
4:20 PM57 °FPassing clouds.9 mph48%30.27 "HgN/A
3:50 PM55 °FPassing clouds.9 mph55%30.27 "HgN/A
3:20 PM54 °FScattered clouds.7 mph54%30.27 "HgN/A
2:50 PM54 °FPassing clouds.10 mph58%30.27 "HgN/A
2:20 PM54 °FScattered clouds.9 mph58%30.27 "HgN/A
1:50 PM54 °FPartly sunny.9 mph58%30.27 "HgN/A
1:20 PM52 °FPartly sunny.9 mph58%30.27 "HgN/A
12:50 PM54 °FScattered clouds.9 mph63%30.27 "HgN/A
12:20 PM50 °FPassing clouds.10 mph62%30.30 "HgN/A
Weather by CustomWeather, © 2016

See weather overviewHow to use our weather pages